Location: ????????
(55.4000°N, 39.1167°E)
Time: 14:00:16
(UTC+00:00)

Cosmos 1238 Rocket - Pass Details

Date: 19 May 2025
Orbit: 356 x 777 km, 82.9° (Epoch: 19 June)

Event Time Altitude Azimuth Distance (km) Brightness Sun altitude
Exits shadow 19:47:28 10° 205° (SSW) 1,715 4.9 -12.1°
Reaches altitude 10° 19:47:34 10° 205° (SSW) 1,678 4.9 -12.1°
Maximum altitude 19:51:07 53° 283° (WNW) 556 3.0 -12.3°
Drops below altitude 10° 19:54:17 10° 3° (N) 1,496 6.2 -12.5°
Sets 19:56:14 0° 8° (N) 2,315 7.2 -12.6°
